Location: *
(45.9500°N, 9.0833°E)
Time: 18:16:14
(UTC+00:00)

CZ-2C R/B - Pass Details

Date: 03 March 2021
Orbit: 783 x 871 km, 98.2° (Epoch: 15 April)

Event Time Altitude Azimuth Distance (km) Brightness Sun altitude
Rises 18:00:43 0° 19° (NNE) 3,430 5.7 -9.1°
Reaches altitude 10° 18:03:15 10° 26° (NNE) 2,478 4.9 -9.5°
Maximum altitude 18:08:29 44° 97° (E) 1,141 3.0 -10.4°
Drops below altitude 10° 18:13:34 10° 169° (S) 2,405 4.9 -11.3°
Sets 18:15:59 0° 176° (S) 3,319 5.7 -11.7°
